Time,TemperatureF,DewpointF,PressureIn,WindDirection,WindDirectionDegrees,WindSpeedMPH,WindSpeedGustMPH,Humidity,HourlyPrecipIn,Conditions,Clouds,dailyrainin,SoftwareType,DateUTC
2013-06-16 00:01:00,65.0,56.0,29.96,North,0,0.0,0.0,74,43.32,,,-99.99,,2013-06-16 07:01:00,
2013-06-16 00:11:00,64.0,56.0,29.96,North,0,0.0,0.0,74,43.32,,,-99.99,,2013-06-16 07:11:00,
2013-06-16 00:22:00,65.0,57.0,29.96,North,0,0.0,0.0,75,43.32,,,-99.99,,2013-06-16 07:22:00,
2013-06-16 00:32:00,64.0,56.0,29.96,North,0,0.0,0.0,75,43.32,,,-99.99,,2013-06-16 07:32:00,
2013-06-16 00:43:00,63.0,56.0,29.97,North,0,0.0,0.0,78,43.32,,,-99.99,,2013-06-16 07:43:00,
2013-06-16 00:53:00,63.0,56.0,29.97,North,0,0.0,0.0,79,43.32,,,-99.99,,2013-06-16 07:53:00,
2013-06-16 01:01:00,63.0,57.0,29.97,North,0,0.0,0.0,80,43.32,,,-99.99,,2013-06-16 08:01:00,
2013-06-16 01:11:00,62.0,56.0,29.98,North,0,0.0,0.0,80,43.32,,,-99.99,,2013-06-16 08:11:00,
2013-06-16 01:22:00,62.0,56.0,29.98,North,0,0.0,0.0,81,43.32,,,-99.99,,2013-06-16 08:22:00,
2013-06-16 01:43:00,61.0,55.0,29.98,North,0,0.0,0.0,81,43.32,,,-99.99,,2013-06-16 08:43:00,
2013-06-16 01:54:00,61.0,55.0,29.98,ENE,73,1.0,2.0,82,43.32,,,-99.99,,2013-06-16 08:54:00,
2013-06-16 02:01:00,61.0,56.0,29.98,North,0,0.0,0.0,83,43.32,,,-99.99,,2013-06-16 09:01:00,
2013-06-16 02:11:00,60.0,55.0,29.98,North,0,0.0,0.0,83,43.32,,,-99.99,,2013-06-16 09:11:00,
2013-06-16 02:21:00,60.0,55.0,29.98,North,0,0.0,0.0,84,43.32,,,-99.99,,2013-06-16 09:21:00,
2013-06-16 02:42:00,60.0,55.0,29.98,North,0,0.0,0.0,85,43.32,,,-99.99,,2013-06-16 09:42:00,
2013-06-16 03:01:00,59.0,55.0,29.99,North,0,0.0,0.0,87,43.32,,,-99.99,,2013-06-16 10:01:00,
2013-06-16 03:11:00,59.0,55.0,29.99,North,0,0.0,0.0,86,43.32,,,-99.99,,2013-06-16 10:11:00,
2013-06-16 03:22:00,59.0,55.0,29.99,North,0,0.0,0.0,86,43.32,,,-99.99,,2013-06-16 10:22:00,
2013-06-16 03:33:00,59.0,55.0,30.00,North,0,0.0,0.0,86,43.32,,,-99.99,,2013-06-16 10:33:00,
2013-06-16 03:42:00,59.0,55.0,30.00,North,0,0.0,0.0,87,43.32,,,-99.99,,2013-06-16 10:42:00,
2013-06-16 03:53:00,58.0,54.0,29.99,North,0,0.0,0.0,87,43.32,,,-99.99,,2013-06-16 10:53:00,
2013-06-16 04:02:00,58.0,54.0,29.99,North,0,0.0,0.0,88,43.32,,,-99.99,,2013-06-16 11:02:00,
2013-06-16 04:11:00,58.0,55.0,30.00,North,0,0.0,0.0,89,43.32,,,-99.99,,2013-06-16 11:11:00,
2013-06-16 04:22:00,58.0,55.0,30.00,North,0,0.0,0.0,89,43.32,,,-99.99,,2013-06-16 11:22:00,
2013-06-16 04:33:00,57.0,54.0,30.00,North,0,0.0,0.0,89,43.32,,,-99.99,,2013-06-16 11:33:00,
2013-06-16 04:43:00,57.0,54.0,30.01,North,0,0.0,0.0,90,43.32,,,-99.99,,2013-06-16 11:43:00,
2013-06-16 05:01:00,57.0,54.0,30.01,North,0,0.0,0.0,90,43.32,,,-99.99,,2013-06-16 12:01:00,
2013-06-16 05:11:00,56.0,53.0,30.01,North,0,0.0,0.0,91,43.32,,,-99.99,,2013-06-16 12:11:00,
2013-06-16 05:22:00,56.0,54.0,30.01,North,0,0.0,0.0,92,43.32,,,-99.99,,2013-06-16 12:22:00,
2013-06-16 05:32:00,56.0,54.0,30.01,North,0,0.0,0.0,93,43.32,,,-99.99,,2013-06-16 12:32:00,
2013-06-16 05:53:00,56.0,54.0,30.01,North,0,0.0,0.0,93,43.32,,,-99.99,,2013-06-16 12:53:00,
2013-06-16 06:01:00,56.0,54.0,30.02,North,0,0.0,0.0,93,43.32,,,-99.99,,2013-06-16 13:01:00,
2013-06-16 06:22:00,56.0,54.0,30.01,North,0,0.0,0.0,93,43.32,,,-99.99,,2013-06-16 13:22:00,
2013-06-16 06:34:00,56.0,54.0,30.01,North,0,0.0,0.0,93,43.32,,,-99.99,,2013-06-16 13:34:00,
2013-06-16 07:01:00,57.0,55.0,30.02,North,0,0.0,0.0,92,43.32,,,-99.99,,2013-06-16 14:01:00,
2013-06-16 07:12:00,57.0,55.0,30.02,North,0,0.0,0.0,92,43.32,,,-99.99,,2013-06-16 14:12:00,
2013-06-16 07:22:00,57.0,54.0,30.02,North,0,0.0,0.0,91,43.32,,,-99.99,,2013-06-16 14:22:00,
2013-06-16 07:43:00,57.0,54.0,30.02,North,0,0.0,0.0,91,43.32,,,-99.99,,2013-06-16 14:43:00,
2013-06-16 07:52:00,57.0,54.0,30.02,North,0,0.0,0.0,91,43.32,,,-99.99,,2013-06-16 14:52:00,
2013-06-16 08:02:00,58.0,54.0,30.02,North,0,0.0,0.0,88,43.32,,,-99.99,,2013-06-16 15:02:00,
2013-06-16 08:12:00,58.0,55.0,30.02,North,0,0.0,0.0,89,43.32,,,-99.99,,2013-06-16 15:12:00,
2013-06-16 08:22:00,59.0,55.0,30.02,North,0,0.0,0.0,88,43.32,,,-99.99,,2013-06-16 15:22:00,
2013-06-16 08:52:00,60.0,56.0,30.02,WSW,253,0.0,2.0,87,43.32,,,-99.99,,2013-06-16 15:52:00,
2013-06-16 09:01:00,60.0,56.0,30.02,SW,214,1.0,3.0,86,43.32,,,-99.99,,2013-06-16 16:01:00,
2013-06-16 09:11:00,60.0,56.0,30.02,SW,225,1.0,3.0,86,43.32,,,-99.99,,2013-06-16 16:11:00,
2013-06-16 09:22:00,61.0,56.0,30.02,WSW,252,2.0,6.0,85,43.32,,,-99.99,,2013-06-16 16:22:00,
2013-06-16 09:43:00,63.0,57.0,30.01,SW,231,2.0,4.0,80,43.32,,,-99.99,,2013-06-16 16:43:00,
2013-06-16 09:53:00,63.0,57.0,30.01,SW,231,2.0,4.0,80,43.32,,,-99.99,,2013-06-16 16:53:00,
2013-06-16 10:01:00,64.0,57.0,30.00,WSW,252,1.0,3.0,77,43.32,,,-99.99,,2013-06-16 17:01:00,
2013-06-16 10:11:00,65.0,57.0,30.00,SW,214,1.0,5.0,75,43.32,,,-99.99,,2013-06-16 17:11:00,
2013-06-16 10:22:00,66.0,57.0,30.00,SE,142,1.0,2.0,74,43.32,,,-99.99,,2013-06-16 17:22:00,
2013-06-16 10:34:00,67.0,58.0,29.99,SW,218,2.0,4.0,72,43.32,,,-99.99,,2013-06-16 17:34:00,
2013-06-16 11:01:00,68.0,59.0,30.00,SSW,195,4.0,13.0,73,43.32,,,-99.99,,2013-06-16 18:01:00,
2013-06-16 11:11:00,68.0,59.0,29.99,SSW,201,4.0,9.0,73,43.32,,,-99.99,,2013-06-16 18:11:00,
2013-06-16 11:22:00,71.0,60.0,29.99,SSW,212,2.0,9.0,69,43.32,,,-99.99,,2013-06-16 18:22:00,
2013-06-16 11:52:00,72.0,59.0,29.98,SSW,203,4.0,11.0,63,43.32,,,-99.99,,2013-06-16 18:52:00,
2013-06-16 12:01:00,72.0,59.0,29.98,SSW,203,4.0,11.0,63,43.32,,,-99.99,,2013-06-16 19:01:00,
2013-06-16 12:11:00,73.0,58.0,29.97,SE,125,6.0,14.0,60,43.32,,,-99.99,,2013-06-16 19:11:00,
2013-06-16 12:22:00,73.0,58.0,29.97,SW,235,5.0,12.0,60,43.32,,,-99.99,,2013-06-16 19:22:00,
2013-06-16 12:33:00,73.0,58.0,29.97,SW,235,5.0,12.0,60,43.32,,,-99.99,,2013-06-16 19:33:00,
2013-06-16 12:43:00,74.0,59.0,29.96,SSW,205,4.0,15.0,60,43.32,,,-99.99,,2013-06-16 19:43:00,
2013-06-16 12:53:00,74.0,59.0,29.96,SSW,208,5.0,13.0,59,43.32,,,-99.99,,2013-06-16 19:53:00,
2013-06-16 13:01:00,75.0,59.0,29.96,South,191,5.0,13.0,57,43.32,,,-99.99,,2013-06-16 20:01:00,
2013-06-16 13:22:00,76.0,60.0,29.96,SSW,200,3.0,11.0,58,43.32,,,-99.99,,2013-06-16 20:22:00,
2013-06-16 13:53:00,75.0,59.0,29.94,SSE,163,6.0,20.0,58,43.32,,,-99.99,,2013-06-16 20:53:00,
2013-06-16 14:01:00,76.0,60.0,29.94,SSW,200,7.0,16.0,58,43.32,,,-99.99,,2013-06-16 21:01:00,
2013-06-16 14:21:00,75.0,61.0,29.94,SSE,153,4.0,16.0,62,43.32,,,-99.99,,2013-06-16 21:21:00,
2013-06-16 14:52:00,72.0,61.0,29.95,SSW,204,7.0,14.0,69,43.32,,,-99.99,,2013-06-16 21:52:00,
2013-06-16 15:01:00,72.0,60.0,29.96,SW,217,7.0,20.0,66,43.32,,,-99.99,,2013-06-16 22:01:00,
2013-06-16 15:11:00,72.0,61.0,29.96,SSE,150,6.0,20.0,68,43.32,,,-99.99,,2013-06-16 22:11:00,
2013-06-16 15:22:00,71.0,59.0,29.96,WSW,239,6.0,14.0,66,43.32,,,-99.99,,2013-06-16 22:22:00,
2013-06-16 15:41:00,70.0,59.0,29.97,South,173,6.0,17.0,67,43.32,,,-99.99,,2013-06-16 22:41:00,
2013-06-16 15:51:00,70.0,59.0,29.97,South,173,6.0,17.0,67,43.32,,,-99.99,,2013-06-16 22:51:00,
2013-06-16 16:01:00,70.0,59.0,29.98,South,188,4.0,12.0,68,43.32,,,-99.99,,2013-06-16 23:01:00,
2013-06-16 16:11:00,69.0,61.0,29.98,SSE,167,2.0,10.0,76,43.33,,,-99.99,,2013-06-16 23:11:00,
2013-06-16 16:21:00,67.0,61.0,29.98,SSE,156,2.0,11.0,81,43.33,,,-99.99,,2013-06-16 23:21:00,
2013-06-16 16:42:00,68.0,61.0,30.00,SSE,155,2.0,4.0,79,43.33,,,-99.99,,2013-06-16 23:42:00,
2013-06-16 17:01:00,69.0,62.0,30.00,ESE,110,1.0,6.0,79,43.33,,,-99.99,,2013-06-17 00:01:00,
2013-06-16 17:42:00,70.0,59.0,30.00,SSW,203,3.0,8.0,69,43.33,,,-99.99,,2013-06-17 00:42:00,
2013-06-16 17:52:00,70.0,59.0,30.00,SSW,194,3.0,9.0,67,43.33,,,-99.99,,2013-06-17 00:52:00,
2013-06-16 18:02:00,70.0,61.0,30.00,South,180,1.0,5.0,72,43.33,,,-99.99,,2013-06-17 01:02:00,
2013-06-16 18:11:00,70.0,60.0,30.00,SSW,193,1.0,5.0,71,43.33,,,-99.99,,2013-06-17 01:11:00,
2013-06-16 18:22:00,70.0,60.0,30.00,SSW,193,1.0,5.0,71,43.33,,,-99.99,,2013-06-17 01:22:00,
2013-06-16 18:43:00,70.0,57.0,30.00,SSW,210,3.0,8.0,64,43.33,,,-99.99,,2013-06-17 01:43:00,
2013-06-16 18:53:00,70.0,57.0,30.00,South,187,1.0,5.0,63,43.33,,,-99.99,,2013-06-17 01:53:00,
2013-06-16 19:02:00,70.0,59.0,30.01,East,83,1.0,2.0,67,43.33,,,-99.99,,2013-06-17 02:02:00,
2013-06-16 19:11:00,69.0,56.0,30.01,SE,128,2.0,5.0,64,43.33,,,-99.99,,2013-06-17 02:11:00,
2013-06-16 19:22:00,69.0,57.0,30.01,SE,128,2.0,9.0,65,43.33,,,-99.99,,2013-06-17 02:22:00,
2013-06-16 19:33:00,69.0,56.0,30.01,SSE,158,3.0,11.0,63,43.33,,,-99.99,,2013-06-17 02:33:00,
2013-06-16 19:43:00,69.0,57.0,30.01,SE,135,2.0,7.0,65,43.33,,,-99.99,,2013-06-17 02:43:00,
2013-06-16 19:53:00,69.0,58.0,30.01,South,174,4.0,14.0,67,43.33,,,-99.99,,2013-06-17 02:53:00,
2013-06-16 20:02:00,68.0,56.0,30.01,South,181,1.0,4.0,66,43.33,,,-99.99,,2013-06-17 03:02:00,
2013-06-16 20:11:00,69.0,57.0,30.01,East,100,2.0,5.0,66,43.33,,,-99.99,,2013-06-17 03:11:00,
2013-06-16 20:22:00,69.0,57.0,30.02,SSW,200,2.0,6.0,65,43.33,,,-99.99,,2013-06-17 03:22:00,
2013-06-16 20:33:00,69.0,57.0,30.01,SSE,155,3.0,7.0,65,43.33,,,-99.99,,2013-06-17 03:33:00,
2013-06-16 20:44:00,67.0,56.0,30.01,North,0,0.0,0.0,69,43.33,,,-99.99,,2013-06-17 03:44:00,
2013-06-16 20:53:00,67.0,56.0,30.01,North,0,0.0,0.0,68,43.33,,,-99.99,,2013-06-17 03:53:00,
2013-06-16 21:02:00,67.0,57.0,30.01,North,0,0.0,0.0,71,43.33,,,-99.99,,2013-06-17 04:02:00,
2013-06-16 21:12:00,66.0,56.0,30.01,SE,145,2.0,8.0,71,43.33,,,-99.99,,2013-06-17 04:12:00,
2013-06-16 21:22:00,66.0,56.0,30.01,SSE,149,2.0,8.0,71,43.33,,,-99.99,,2013-06-17 04:22:00,
2013-06-16 21:33:00,66.0,58.0,30.01,SSE,159,1.0,3.0,75,43.33,,,-99.99,,2013-06-17 04:33:00,
2013-06-16 21:42:00,65.0,56.0,30.02,ESE,117,1.0,7.0,74,43.33,,,-99.99,,2013-06-17 04:42:00,
2013-06-16 21:53:00,66.0,57.0,30.03,SE,138,2.0,7.0,72,43.33,,,-99.99,,2013-06-17 04:53:00,
2013-06-16 22:02:00,65.0,57.0,30.03,East,93,2.0,5.0,76,43.33,,,-99.99,,2013-06-17 05:02:00,
2013-06-16 22:11:00,65.0,57.0,30.03,East,93,2.0,5.0,76,43.33,,,-99.99,,2013-06-17 05:11:00,
2013-06-16 22:22:00,65.0,58.0,30.03,ENE,60,0.0,1.0,77,43.33,,,-99.99,,2013-06-17 05:22:00,
2013-06-16 22:33:00,65.0,57.0,30.03,SSE,155,0.0,4.0,76,43.33,,,-99.99,,2013-06-17 05:33:00,
2013-06-16 22:44:00,65.0,58.0,30.04,North,0,0.0,0.0,79,43.33,,,-99.99,,2013-06-17 05:44:00,
2013-06-16 22:53:00,65.0,58.0,30.04,North,0,0.0,0.0,79,43.33,,,-99.99,,2013-06-17 05:53:00,
2013-06-16 23:02:00,64.0,59.0,30.04,North,0,0.0,0.0,83,43.33,,,-99.99,,2013-06-17 06:02:00,
2013-06-16 23:11:00,64.0,59.0,30.04,North,0,0.0,0.0,83,43.33,,,-99.99,,2013-06-17 06:11:00,
2013-06-16 23:22:00,63.0,58.0,30.04,North,10,0.0,2.0,85,43.33,,,-99.99,,2013-06-17 06:22:00,
2013-06-16 23:32:00,63.0,59.0,30.04,North,0,0.0,0.0,87,43.33,,,-99.99,,2013-06-17 06:32:00,
2013-06-16 23:43:00,63.0,59.0,30.04,North,0,0.0,0.0,87,43.33,,,-99.99,,2013-06-17 06:43:00,
2013-06-16 23:53:00,62.0,58.0,30.05,North,0,0.0,0.0,88,43.33,,,-99.99,,2013-06-17 06:53:00,